Weather History for Barter Island, AK

Change the Weather History Date:

Saturday, February 15, 2014

  Actual Average Record
Temperature  
Mean Temperature -35 °F -  
Max Temperature -32 °F -6 °F 28 °F (2001)
Min Temperature -38 °F -18 °F -43 °F (1998)
Degree Days  
Heating Degree Days 100    
Moisture  
Dew Point -    
Average Humidity    
Maximum Humidity    
Minimum Humidity    
Precipitation  
Precipitation 0.00 in - - ()
Sea Level Pressure  
Sea Level Pressure 29.94 in    
Wind  
Wind Speed 5 mph (WSW)    
Max Wind Speed 8 mph    
Max Gust Speed -    
Visibility 4 miles    
Events Snow    
Averages and records for this station are not official NWS values.
T = Trace of Precipitation, MM = Missing Value Source: NWS Daily Summary

Daily Weather History Graph

Daily Weather History Graph

Search for Another Location

Airport:

Trip Planner

Search our weather history database for the weather conditions in past years. The results will help you decide how hot, cold, wet, or windy it might be!

Date:

Astronomy

Feb. 15, 2014 Rise Set
Actual Time 9:07 AM AKST 4:30 PM AKST
Civil Twilight 7:58 AM AKST 5:40 PM AKST
Nautical Twilight 6:45 AM AKST 6:52 PM AKST
Astronomical Twilight 5:35 AM AKST 8:04 PM AKST
Moon 6:46 PM AKST (2/15) 8:16 AM AKST (2/15)
Length of Visible Light 9h 41m
Length of Day
7h 23m
Full, 99% of the Moon is Illuminated
Feb 15
Full
Feb 22
Last Quarter
Feb 28
New
Mar 8
First Quarter
Mar 16
Full

Hourly Weather History & Observations

Time (AKST) Temp. Windchill Dew Point Humidity Pressure Visibility Wind Dir Wind Speed Gust Speed Precip Events Conditions
12:01 AM -35.0 °F -55.0 °F - N/A% 30.04 in 6.0 mi WSW 6.9 mph - N/A   Haze
1:01 AM -36.0 °F -56.3 °F - N/A% 30.04 in 7.0 mi WSW 6.9 mph - 0.00 in Snow Light Snow
2:01 AM -36.0 °F -56.3 °F - N/A% 30.03 in 8.0 mi WSW 6.9 mph - 0.00 in   Unknown
2:50 AM -36.4 °F -54.8 °F - N/A% 30.03 in 8.0 mi WSW 5.8 mph - 0.00 in Snow Light Snow
3:01 AM -35.0 °F -55.0 °F - N/A% 30.03 in 6.0 mi WSW 6.9 mph - 0.00 in Snow Light Snow
3:20 AM -36.4 °F -56.8 °F - N/A% 30.02 in - WSW 6.9 mph - N/A Snow Light Snow
4:01 AM -36.0 °F -56.3 °F - N/A% 30.02 in 5.0 mi WSW 6.9 mph - N/A   Haze
5:11 AM -36.4 °F -52.4 °F - N/A% 30.01 in 2.5 mi SW 4.6 mph - N/A   Mist
5:18 AM -36.4 °F -49.4 °F - N/A% 30.01 in 3.0 mi WSW 3.5 mph - N/A   Mist
6:01 AM -38.0 °F -60.5 °F - N/A% 30.00 in 7.0 mi WSW 8.1 mph - N/A   Unknown
7:01 AM -38.0 °F -58.7 °F - N/A% 29.99 in 7.0 mi WSW 6.9 mph - N/A   Unknown
8:01 AM -38.0 °F -56.7 °F - N/A% 29.99 in 9.0 mi West 5.8 mph - N/A   Unknown
9:01 AM -38.0 °F -56.7 °F - N/A% 29.98 in 8.0 mi West 5.8 mph - N/A   Unknown
10:01 AM -36.9 °F -53.0 °F - N/A% 29.96 in 5.0 mi West 4.6 mph - N/A   Haze
10:33 AM -36.4 °F -52.4 °F - N/A% 29.96 in 1.8 mi SW 4.6 mph - N/A   Clear
10:37 AM -36.4 °F -54.8 °F - N/A% 29.96 in 2.0 mi West 5.8 mph - N/A   Partly Cloudy
10:48 AM -36.4 °F -58.5 °F - N/A% 29.96 in 6.0 mi West 8.1 mph - N/A   Haze
11:01 AM -36.9 °F -55.4 °F - N/A% 29.96 in 10.0 mi WSW 5.8 mph - N/A   Unknown
11:29 AM -36.4 °F -56.8 °F - N/A% 29.97 in 2.5 mi WSW 6.9 mph - N/A   Partly Cloudy
12:01 PM -36.4 °F -58.5 °F - N/A% 29.96 in 2.0 mi West 8.1 mph - N/A   Mist
12:13 PM -34.6 °F -56.3 °F - N/A% 29.96 in 8.0 mi West 8.1 mph - N/A   Unknown
1:01 PM -33.0 °F - - N/A% 29.95 in 6.0 mi Calm Calm - N/A   Haze
1:39 PM -32.8 °F -45.3 °F - N/A% 29.93 in 1.8 mi SW 3.5 mph - 0.00 in   Clear
1:50 PM -34.6 °F -47.4 °F - N/A% 29.93 in 1.0 mi SSW 3.5 mph - 0.00 in   Clear
2:01 PM -35.0 °F - - N/A% 29.92 in 1.0 mi Calm Calm - 0.00 in   Clear
2:08 PM -34.6 °F - - N/A% 29.92 in 0.8 mi Calm Calm - N/A   Clear
2:15 PM -34.6 °F -52.6 °F - N/A% 29.92 in 0.8 mi SSW 5.8 mph - N/A   Mist
2:20 PM -36.4 °F -52.4 °F - N/A% 29.92 in 1.2 mi SW 4.6 mph - N/A   Partly Cloudy
2:38 PM -36.4 °F -49.4 °F - N/A% 29.92 in 1.0 mi WSW 3.5 mph - N/A   Clear
2:57 PM -36.4 °F -49.4 °F - N/A% 29.92 in 1.8 mi WSW 3.5 mph - N/A   Mist
3:01 PM -36.9 °F - - N/A% 29.92 in 1.2 mi Calm Calm - N/A   Mist
3:06 PM -36.4 °F -49.4 °F - N/A% 29.92 in 0.8 mi West 3.5 mph - N/A   Mist
3:20 PM -36.4 °F -49.4 °F - N/A% 29.92 in 1.0 mi WSW 3.5 mph - N/A   Clear
3:29 PM -38.2 °F -54.5 °F - N/A% 29.91 in 1.5 mi West 4.6 mph - N/A   Clear
3:41 PM -38.2 °F -54.5 °F - N/A% 29.91 in 1.0 mi WSW 4.6 mph - N/A   Clear
3:49 PM -38.2 °F -51.5 °F - N/A% 29.91 in 1.5 mi WSW 3.5 mph - N/A   Clear
4:01 PM -38.0 °F - - N/A% 29.91 in 1.2 mi Calm Calm - N/A   Clear
4:08 PM -38.2 °F - - N/A% 29.91 in 0.8 mi Calm Calm - N/A   Clear
4:24 PM -38.2 °F - - N/A% 29.91 in 1.2 mi Calm Calm - N/A   Clear
4:31 PM -38.2 °F -51.5 °F - N/A% 29.90 in 3.0 mi NNW 3.5 mph - N/A   Clear
5:01 PM -38.0 °F -51.3 °F - N/A% 29.88 in 10.0 mi North 3.5 mph - N/A   Clear
5:59 PM -36.4 °F -49.4 °F - N/A% 29.89 in 2.0 mi SSW 3.5 mph - N/A   Clear
6:01 PM -36.9 °F - - N/A% 29.89 in 2.0 mi Calm Calm - N/A   Clear
6:26 PM -36.4 °F - - N/A% 29.88 in 3.0 mi Calm Calm - N/A   Clear
6:46 PM -38.2 °F - - N/A% 29.87 in 2.0 mi Calm Calm - N/A   Clear
6:59 PM -38.2 °F - - N/A% 29.87 in 4.0 mi Calm Calm - N/A   Haze
7:01 PM -38.0 °F - - N/A% 29.87 in 4.0 mi Calm Calm - N/A   Haze
8:01 PM -36.9 °F - - N/A% 29.86 in 5.0 mi Calm Calm - 0.00 in Snow Light Snow
9:01 PM -33.0 °F -48.4 °F - N/A% 29.85 in 10.0 mi East 4.6 mph - 0.00 in   Clear
9:46 PM -32.8 °F -48.2 °F - N/A% 29.85 in 9.0 mi SE 4.6 mph - N/A   Mostly Cloudy
10:01 PM -33.0 °F - - N/A% 29.83 in 10.0 mi Calm Calm - N/A   Overcast
10:36 PM -32.8 °F -50.5 °F - N/A% 29.83 in 10.0 mi East 5.8 mph - N/A   Scattered Clouds